User: anonymous   Login
Location: Unspecified
(0.0000°N, 0.0000°E)
Time: 16:39:26
(UTC+00:00)
Language:

Vanguard 3 - Orbit

View from above orbital plane
View from above orbital plane
View from above satellite
View from above satellite

Ground track
Ground track

The orbit data is extracted from the following two-line orbital elements,

1 00020U 59007A   18169.54083184  .00000067  00000-0  27032-4 0  9992
2 00020  33.3455 262.1331 1667349 355.1210   3.4794 11.55587773146173
Epoch (UTC): 18 June 2018 12:58:47
Eccentricity: 0.1667349
inclination: 33.3455°
perigee height: 508 km
apogee height: 3264 km
right ascension of ascending node: 262.1331°
argument of perigee: 355.1210°
revolutions per day: 11.55587773
mean anomaly at epoch: 3.4794°
orbit number at epoch: 14617

The dashed part of the orbit path shows where the satellite is in the earth's shadow,  

DLR